Terminal Aerodrome Forecast
Issued by NWS Central Illinois

Home | Current Version | Previous Version | Text Only | Print | Product List | Glossary On
Versions: 1 2 3 4 5 6 7 8 9 10 11 12 13 14 15 16
368
FTUS43 KILX 212338
TAFSPI
TAF
KSPI 212338Z 2200/2224 18008KT P6SM BKN250
     FM220800 22007KT 6SM SHRA VCTS OVC050CB
     FM221200 25006KT P6SM OVC050
     FM221400 26007KT P6SM OVC025
     FM222000 30011KT P6SM BKN035=

USA.gov is the U.S. government's official web portal to all federal, state and local government web resources and services.